{"data":{"norad_id":48151,"intl_designator":"2021-027BM","name":"STARLINK-2503","alt_names":[],"object_type":"PAYLOAD","status":"ACTIVE","operator":null,"country":"US","launch_date":"2021-04-07","launch_site_code":"AFETR","launch_vehicle":null,"mission":null,"orbit_class":"UNKNOWN","rcs_meters":null,"size_class":null,"mass_kg":null,"dimensions":null,"purposes":["comms"],"wikipedia_slug":null,"has_3d_model":false,"image_url":null,"decayed_at":null,"tle_current":{"epoch":"2026-05-25T01:06:36.972000Z","epoch_age_seconds":74142,"freshness":"FRESH","line1":"1 48151U 21027BM  26145.04626125  .00002233  00000+0  83692-4 0  9996","line2":"2 48151  53.1585 157.5302 0001420  89.5821 270.5343 15.31702315284388","mean_motion":15.31702315,"eccentricity":0.000142,"inclination_deg":53.1585,"raan_deg":157.5302,"arg_perigee_deg":89.5821,"mean_anomaly_deg":270.5343,"bstar":8.3692e-5,"rev_number":28438,"period_min":94.01304587047,"perigee_km":469.76055478641,"apogee_km":471.7056338932,"semimajor_km":6848.8700943398,"source":"CELESTRAK","updated_at":"2026-05-25T13:38:16.652338Z"}}}